Location: Kalberh�ni
(46.4610°N, 7.2453°E)
Time: 05:03:28
(UTC+00:00)

Cosmos 2333 Rocket - Pass Details

Date: 23 October 2021
Orbit: 837 x 865 km, 70.8° (Epoch: 05 December)

Event Time Altitude Azimuth Distance (km) Brightness Sun altitude
Exits shadow 03:36:29 - 337° (NNW) 3,424 5.2 -25.2°
Reaches altitude 10° 03:39:06 10° 346° (NNW) 2,506 4.6 -24.8°
Maximum altitude 03:44:24 36° 53° (NE) 1,340 3.7 -23.9°
Drops below altitude 10° 03:49:40 10° 119° (ESE) 2,502 5.4 -23.0°
Sets 03:52:20 0° 128° (SE) 3,437 6.0 -22.5°
